TimeEST,TemperatureF,Dew PointF,Humidity,Sea Level PressureIn,VisibilityMPH,Wind Direction,Wind SpeedMPH,Gust SpeedMPH,PrecipitationIn,Events,Conditions,WindDirDegrees,DateUTC
12:14 AM,28.6,23.5,81,30.10,7.0,South,11.5,-,N/A,,Clear,180,2013-01-09 05:14:00
12:54 AM,27.9,23.5,84,30.10,7.0,South,11.5,-,N/A,,Clear,180,2013-01-09 05:54:00
1:14 AM,28.4,24.1,84,30.08,7.0,South,10.4,-,N/A,,Clear,170,2013-01-09 06:14:00
1:34 AM,27.9,23.5,84,30.07,7.0,South,11.5,-,N/A,,Clear,170,2013-01-09 06:34:00
1:54 AM,28.4,24.3,84,30.06,7.0,South,13.8,-,N/A,,Clear,170,2013-01-09 06:54:00
2:14 AM,28.9,24.8,84,30.04,7.0,South,12.7,-,N/A,,Clear,170,2013-01-09 07:14:00
2:34 AM,29.3,24.8,83,30.04,7.0,South,12.7,-,N/A,,Clear,170,2013-01-09 07:34:00
2:54 AM,28.8,24.4,84,30.04,7.0,South,11.5,-,N/A,,Clear,170,2013-01-09 07:54:00
3:14 AM,29.1,25.0,85,30.04,7.0,South,12.7,-,N/A,,Scattered Clouds,190,2013-01-09 08:14:00
3:34 AM,30.4,25.7,83,30.04,7.0,South,13.8,-,N/A,,Mostly Cloudy,190,2013-01-09 08:34:00
3:54 AM,32.0,26.6,80,30.02,10.0,South,13.8,-,N/A,,Overcast,190,2013-01-09 08:54:00
4:14 AM,32.0,26.6,80,30.01,10.0,South,15.0,-,N/A,,Overcast,190,2013-01-09 09:14:00
4:35 AM,32.4,26.8,80,30.00,10.0,South,15.0,-,N/A,,Mostly Cloudy,190,2013-01-09 09:35:00
4:54 AM,32.5,27.3,81,29.97,10.0,South,16.1,-,N/A,,Overcast,180,2013-01-09 09:54:00
5:14 AM,33.3,27.9,81,29.96,10.0,South,16.1,20.7,N/A,,Overcast,190,2013-01-09 10:14:00
5:35 AM,33.8,28.4,81,29.96,10.0,SSW,12.7,-,N/A,,Overcast,200,2013-01-09 10:35:00
5:54 AM,33.8,28.6,81,29.95,10.0,South,13.8,-,N/A,,Overcast,190,2013-01-09 10:54:00
6:14 AM,34.0,29.3,83,29.94,10.0,South,15.0,19.6,N/A,,Overcast,180,2013-01-09 11:14:00
6:34 AM,35.1,30.0,82,29.96,5.0,South,16.1,-,N/A,Snow,Light Snow,190,2013-01-09 11:34:00
6:54 AM,35.1,31.1,85,29.95,10.0,SW,8.1,-,N/A,,Overcast,230,2013-01-09 11:54:00
7:14 AM,35.2,31.3,85,29.94,10.0,SSW,9.2,-,N/A,,Overcast,210,2013-01-09 12:14:00
7:34 AM,35.1,31.6,87,29.92,10.0,South,12.7,-,N/A,,Scattered Clouds,190,2013-01-09 12:34:00
7:54 AM,35.6,32.0,87,29.94,10.0,SSW,11.5,-,N/A,,Clear,210,2013-01-09 12:54:00
8:14 AM,36.7,32.5,85,29.94,10.0,SW,13.8,18.4,N/A,,Clear,220,2013-01-09 13:14:00
8:34 AM,37.8,32.5,81,29.93,10.0,SW,16.1,21.9,N/A,,Clear,220,2013-01-09 13:34:00
8:54 AM,38.3,32.4,79,29.95,10.0,SW,15.0,23.0,N/A,,Clear,230,2013-01-09 13:54:00
9:14 AM,38.3,32.4,79,29.95,10.0,SW,20.7,26.5,N/A,,Scattered Clouds,230,2013-01-09 14:14:00
9:34 AM,38.3,32.5,80,29.95,10.0,SW,21.9,28.8,N/A,,Overcast,230,2013-01-09 14:34:00
9:54 AM,38.1,32.4,80,29.95,10.0,WSW,17.3,31.1,N/A,,Overcast,240,2013-01-09 14:54:00
10:14 AM,37.9,32.4,80,29.95,10.0,SW,20.7,28.8,N/A,,Mostly Cloudy,230,2013-01-09 15:14:00
10:34 AM,38.3,32.4,79,29.96,10.0,WSW,23.0,31.1,N/A,,Scattered Clouds,240,2013-01-09 15:34:00
10:54 AM,38.5,32.2,78,29.97,10.0,WSW,19.6,26.5,N/A,,Clear,240,2013-01-09 15:54:00
11:15 AM,38.7,32.4,78,29.97,10.0,WSW,19.6,25.3,N/A,,Clear,250,2013-01-09 16:15:00
11:34 AM,38.8,32.0,76,29.97,10.0,WSW,17.3,27.6,N/A,,Clear,240,2013-01-09 16:34:00
11:54 AM,39.2,32.0,75,29.98,10.0,WSW,20.7,27.6,N/A,,Clear,250,2013-01-09 16:54:00
12:15 PM,39.2,31.8,75,29.98,10.0,WSW,19.6,27.6,N/A,,Clear,250,2013-01-09 17:15:00
12:34 PM,39.4,31.8,74,29.97,10.0,WSW,19.6,28.8,N/A,,Clear,240,2013-01-09 17:34:00
12:54 PM,39.4,31.8,74,29.97,10.0,WSW,18.4,25.3,N/A,,Clear,240,2013-01-09 17:54:00
1:15 PM,39.7,31.1,71,29.96,10.0,WSW,20.7,27.6,N/A,,Clear,240,2013-01-09 18:15:00
1:34 PM,40.1,31.1,70,29.96,10.0,WSW,17.3,25.3,N/A,,Clear,240,2013-01-09 18:34:00
1:54 PM,40.6,30.6,67,29.97,10.0,WSW,23.0,34.5,N/A,,Clear,250,2013-01-09 18:54:00
2:15 PM,41.2,30.2,65,29.97,10.0,WSW,24.2,34.5,N/A,,Clear,250,2013-01-09 19:15:00
2:34 PM,41.4,30.2,65,29.98,10.0,WSW,20.7,27.6,N/A,,Clear,250,2013-01-09 19:34:00
2:54 PM,41.9,29.5,61,29.99,10.0,WSW,25.3,31.1,N/A,,Clear,250,2013-01-09 19:54:00
3:15 PM,42.1,29.3,61,30.01,10.0,West,18.4,28.8,N/A,,Clear,260,2013-01-09 20:15:00
3:34 PM,41.7,29.8,63,30.03,10.0,West,20.7,28.8,N/A,,Clear,260,2013-01-09 20:34:00
3:55 PM,41.2,28.0,60,30.05,10.0,West,17.3,28.8,N/A,,Scattered Clouds,270,2013-01-09 20:55:00
4:14 PM,41.0,27.0,57,30.07,10.0,West,18.4,28.8,N/A,,Mostly Cloudy,280,2013-01-09 21:14:00
4:34 PM,40.1,27.1,60,30.09,10.0,West,19.6,29.9,N/A,,Mostly Cloudy,280,2013-01-09 21:34:00
4:55 PM,38.8,27.9,65,30.12,10.0,WNW,17.3,23.0,N/A,,Overcast,290,2013-01-09 21:55:00
5:14 PM,38.7,27.5,64,30.13,10.0,WNW,16.1,24.2,N/A,,Overcast,290,2013-01-09 22:14:00
5:35 PM,38.3,27.5,65,30.15,10.0,WNW,16.1,24.2,N/A,,Overcast,290,2013-01-09 22:35:00
5:54 PM,37.9,27.1,65,30.16,10.0,West,16.1,24.2,N/A,,Mostly Cloudy,280,2013-01-09 22:54:00
6:14 PM,37.4,27.3,67,30.18,10.0,West,17.3,24.2,N/A,,Scattered Clouds,280,2013-01-09 23:14:00
6:35 PM,36.9,27.1,68,30.20,10.0,West,17.3,28.8,N/A,,Scattered Clouds,280,2013-01-09 23:35:00
6:54 PM,36.7,27.0,68,30.21,10.0,West,18.4,26.5,N/A,,Scattered Clouds,270,2013-01-09 23:54:00
7:14 PM,36.7,27.0,68,30.23,10.0,West,13.8,27.6,N/A,,Clear,270,2013-01-10 00:14:00
7:34 PM,36.3,27.3,70,30.26,10.0,West,18.4,25.3,N/A,,Clear,270,2013-01-10 00:34:00
7:54 PM,36.3,27.1,69,30.28,10.0,West,16.1,26.5,N/A,,Clear,270,2013-01-10 00:54:00
8:15 PM,36.0,27.1,70,30.29,10.0,West,20.7,27.6,N/A,,Clear,280,2013-01-10 01:15:00
8:34 PM,35.8,27.0,70,30.30,10.0,West,18.4,24.2,N/A,,Clear,280,2013-01-10 01:34:00
8:54 PM,35.8,27.1,71,30.31,10.0,West,17.3,26.5,N/A,,Clear,280,2013-01-10 01:54:00
9:14 PM,35.6,27.0,71,30.32,10.0,West,17.3,23.0,N/A,,Clear,280,2013-01-10 02:14:00
9:35 PM,35.4,26.8,71,30.32,10.0,West,13.8,23.0,N/A,,Clear,280,2013-01-10 02:35:00
9:55 PM,35.1,27.0,72,30.34,10.0,WNW,15.0,20.7,N/A,,Clear,290,2013-01-10 02:55:00
10:14 PM,35.1,26.6,71,30.35,10.0,West,11.5,18.4,N/A,,Clear,280,2013-01-10 03:14:00
10:35 PM,34.7,26.6,72,30.37,10.0,West,9.2,-,N/A,,Clear,280,2013-01-10 03:35:00
10:54 PM,34.2,26.6,74,30.38,10.0,WNW,9.2,-,N/A,,Clear,290,2013-01-10 03:54:00
11:14 PM,34.2,26.2,73,30.38,10.0,NW,9.2,-,N/A,,Clear,310,2013-01-10 04:14:00
11:34 PM,33.1,26.2,76,30.37,10.0,NW,8.1,-,N/A,,Clear,310,2013-01-10 04:34:00
11:54 PM,32.9,25.7,75,30.39,10.0,WNW,5.8,-,N/A,,Clear,300,2013-01-10 04:54:00